Portada
METAR-TAF:

METAR-TAF

Aeropuertos :

Aeropuerto de Tetuán-Sania Ramel

Tetuán, Marruecos

latitud: 35-35N, longitud: 005-20W, altitud: 10 m

Observación

El informe se hizo hace 49 minutos, a las 19:00 UTC
Viento 4 kt del noreste
Temperatura 16°C
Humedad 88%
Presión 1015 hPa
Visibilidad 10 km o más
Escasas nubes a una altura de 1000 ft
Cielo nuboso a una altura de 2300 ft

METAR: GMTN 291900Z 05004KT 9999 FEW010 BKN023 16/14 Q1015 NOSIG

Hora: 20:49 (19:49 UTC)


TAF: falta

Observaciones y pronósticos meteorológicos de más de 4000 aeropuertos (mensajes METAR y TAF).

Los puntos amarillos y rojos representan las estaciones disponibles.

Ponga el ratón en el punto deseado para ver el nombre de la estación.

Haga clic para ver las observaciones y los pronósticos meteorológicos.

Para cambiar el mapa : haga clic en los botones verdes con una cruz de color negro para hacer un zoom, en el botón verde con un guión para alejar o en las flechas verdes para mapas adyacentes.


METAR-TAF: